STARLINK-35043

Last updated on Thu Oct 02 2025 00:02:05 GMT+0000 (Coordinated Universal Time)

1 65436U 25194C 25274.50002315 .00478234 00000+0 18331-2 0 9996 2 65436 97.5885 127.8385 0001415 118.0841 332.9918 15.86247238 4988

Satellite not in orbit

STARLINK-35043